星链-4703 (STARLINK-4703 )

导读 | 豆包AI

STARLINK-4703是美国太空探索技术公司(SpaceX)星链(Starlink)卫星互联网项目中的一颗卫星,于2022年9月19日发射升空,隶属于星链低轨通信卫星星座。它承担着为全球范围用户提供高速宽带互联网接入服务的任务,尤其可为偏远地区、海洋船舶等缺乏传统网络覆盖的场景提供网络连接,是星链星座部署扩张进程中的组成单元。

基本信息
目录编号:
53855
目录名称:
STARLINK-4703
国际标识:
2022-114AP
轨道中心:
EARTH
卫星名称:
星链-4703
卫星全名:
星链-4703 (STARLINK-4703 )
卫星状态:
在轨 (已飞行1273 天)
发射日期:
2022-09-19 UTC
国别 :
美国 (US)
星等 :
--
轨道信息
数据来源 国际轨道数据
星历时间: 2026-03-15T01:07:27+0800
15小时前
查看轨道信息
半长轴: 6917.869km
偏心率: 0.0001327
轨道倾角: 53.216°
近地点辐角 91.475°
升交点赤经 271.313°
平近点角 268.639°
近地点: 538.813km
远地点: 540.651km
周期: 95.437分钟
每日圈数: 15.088438
详细信息
固有亮度:
5
最大亮度:
2.5
卫星平台:
Starlink v1.5
覆盖范围:
全球
运营商:
太空探索技术公司
运营商所在国:
美国
制造商(研发单位):
太空探索技术公司
制造商所在国:
美国
使用方式:
暂无
卫星简介
星链(Starlink)计划是由太空探索技术公司(SpaceX)提出的一个巨型低轨卫星互联网星座项目,计划在2019年至2024年间在太空搭建由约1.2万颗卫星组成的“星链”网络,其中1584颗将部署在地球上空550千米处的近地轨道,并从2020年开始工作。该卫星仍在工作。
2D轨道图
3D轨道图
轨道高度分析图
轨道倾角分析图
轨道综合分析图
查看轨道综合分析图